Terug naar catalogus

MIMAN

ActiefWetenschapSSO
NORAD 52900·PAYLOAD·🇰🇷 South Korea

Gelanceerd Jun 21, 2022 vanaf Naro Space Center

Loading…

Volgende Passages (komende 24 uur)

TLE

VersSource: Space-Track

Epoch: Sep 14, 2026, 15:26 UTC

1 52900U 22065G   26257.64336348  .00000368  00000-0  83111-4 0  9995
2 52900  98.2397  39.7461 0008838 104.6605 255.5576 14.61924775223519

Volg MIMAN in realtime met AllMySat

Download on the App Store